Total_Precipitation_Accumulation
0.77 1.06 1.15 0.97 0.96 1.02 0.95 0.98 1.03 0.97 0.84 0.94 0.93 0.88 0.94 0.88 0.71 0.58 0.57 0.61 0.56 0.51 0.53 0.48 0.45 0.52 0.52 0.47 0.44 0.49 0.56 0.60 0.60 0.71 0.84 0.96 1.07 1.21 1.41 1.48 1.53 1.66 1.71 1.72
0.84 0.88 0.72 0.74 0.78 0.86 0.87 0.90 0.93 0.83 0.73 0.77 0.85 0.90 0.89 0.82 0.73 0.63 0.56 0.48 0.45 0.45 0.43 0.39 0.39 0.41 0.43 0.44 0.43 0.45 0.57 0.65 0.69 0.75 0.89 1.08 1.33 1.39 1.54 1.75 1.75 1.76 1.80 1.85
0.72 0.63 0.56 0.64 0.75 0.82 0.84 0.80 0.76 0.78 0.75 0.75 0.81 1.03 0.95 0.86 0.71 0.60 0.53 0.43 0.36 0.38 0.36 0.30 0.33 0.38 0.39 0.42 0.49 0.52 0.64 0.83 0.99 1.08 1.31 1.64 1.89 1.94 1.88 1.91 1.98 1.98 1.99 2.05
0.77 0.55 0.55 0.65 0.68 0.71 0.86 0.61 0.55 0.66 0.83 0.96 0.80 1.15 0.94 0.83 0.75 0.59 0.51 0.46 0.38 0.41 0.44 0.36 0.35 0.38 0.38 0.44 0.57 0.76 0.96 1.25 1.47 1.57 1.75 2.02 2.16 2.20 2.09 2.08 2.10 2.13 2.06 1.98
0.76 0.58 0.58 0.65 0.61 0.56 0.68 0.56 0.56 0.66 0.80 0.85 0.70 0.87 0.83 0.69 0.76 0.65 0.59 0.53 0.47 0.48 0.48 0.49 0.48 0.54 0.56 0.66 0.88 1.23 1.52 1.72 1.85 1.88 1.93 2.17 2.32 2.48 2.49 2.37 2.22 2.16 2.17 2.12
0.67 0.58 0.61 0.65 0.57 0.51 0.58 0.66 0.71 0.74 0.86 1.01 0.67 0.69 0.84 0.68 0.64 0.66 0.66 0.58 0.53 0.52 0.54 0.65 0.78 0.92 0.99 1.09 1.31 1.55 1.72 1.87 1.85 1.82 1.83 1.97 2.17 2.33 2.36 2.38 2.35 2.26 2.19 2.11
0.69 0.64 0.58 0.54 0.62 0.62 0.67 0.89 1.16 1.18 1.16 0.97 0.56 0.67 0.72 0.51 0.47 0.54 0.60 0.60 0.56 0.53 0.63 0.86 1.04 1.18 1.28 1.39 1.51 1.57 1.56 1.65 1.68 1.65 1.67 1.72 1.79 1.82 1.87 2.00 1.94 1.83 1.74 1.68
0.58 0.62 0.51 0.44 0.48 0.57 0.62 0.69 1.04 1.18 1.03 0.85 0.64 0.83 0.73 0.53 0.52 0.46 0.50 0.59 0.66 0.77 0.91 1.04 1.16 1.27 1.32 1.46 1.53 1.49 1.45 1.44 1.38 1.34 1.40 1.44 1.46 1.52 1.50 1.50 1.47 1.40 1.35 1.33
0.45 0.49 0.39 0.37 0.35 0.43 0.53 0.54 0.60 0.81 0.78 0.82 0.74 0.83 0.74 0.53 0.52 0.47 0.48 0.58 0.72 0.90 1.15 1.33 1.34 1.26 1.22 1.28 1.37 1.34 1.29 1.24 1.14 1.08 1.13 1.20 1.31 1.30 1.23 1.17 1.12 1.12 1.05 1.06
0.38 0.48 0.44 0.40 0.39 0.41 0.42 0.49 0.63 0.93 1.09 1.09 0.86 0.93 0.89 0.67 0.60 0.56 0.59 0.70 0.87 1.03 1.25 1.53 1.64 1.52 1.29 1.12 1.16 1.13 1.12 1.17 1.17 1.13 1.13 1.11 1.06 0.99 0.94 0.94 0.87 0.86 0.92 0.94
0.31 0.42 0.43 0.42 0.42 0.43 0.44 0.52 0.66 0.86 0.87 1.15 1.38 1.32 0.97 0.83 0.76 0.74 0.78 0.84 0.92 1.17 1.46 1.59 1.62 1.49 1.35 1.08 1.01 1.01 1.01 1.07 1.15 1.10 1.12 1.10 0.98 0.86 0.81 0.75 0.69 0.71 0.75 0.79
0.30 0.41 0.42 0.37 0.34 0.31 0.38 0.49 0.68 1.04 1.01 0.96 1.20 1.21 0.77 0.80 0.91 0.84 0.90 0.98 1.01 1.10 1.16 1.17 1.27 1.30 1.23 1.09 1.01 1.08 1.12 1.14 1.11 1.07 1.05 1.01 0.95 0.85 0.84 0.77 0.67 0.70 0.75 0.76
0.31 0.42 0.50 0.49 0.44 0.39 0.49 0.55 0.53 0.73 0.92 0.94 1.13 1.13 0.69 0.68 0.81 0.85 0.94 0.97 0.97 0.97 0.91 0.86 0.97 1.13 1.08 1.00 1.03 1.12 1.25 1.27 1.21 1.10 1.02 1.01 0.97 0.95 0.97 0.84 0.75 0.74 0.82 0.93
0.25 0.33 0.37 0.44 0.41 0.45 0.69 0.78 0.58 0.72 0.95 0.80 0.76 0.83 0.65 0.62 0.73 0.81 0.89 0.91 0.88 0.82 0.76 0.73 0.68 0.74 0.77 0.80 0.80 0.92 1.18 1.41 1.38 1.26 1.14 1.08 1.09 1.12 1.09 0.94 0.86 0.80 0.80 0.82
0.27 0.28 0.21 0.19 0.21 0.27 0.48 0.53 0.45 0.49 0.51 0.57 0.51 0.54 0.63 0.70 0.74 0.77 0.78 0.71 0.64 0.63 0.59 0.54 0.50 0.49 0.49 0.54 0.63 0.76 1.07 1.30 1.29 1.26 1.11 1.02 0.99 0.98 0.94 0.94 0.99 0.91 0.80 0.74
0.25 0.26 0.19 0.17 0.16 0.18 0.21 0.16 0.16 0.21 0.27 0.34 0.40 0.51 0.56 0.59 0.61 0.69 0.68 0.54 0.52 0.54 0.53 0.51 0.46 0.41 0.37 0.37 0.44 0.56 0.76 0.96 1.05 1.07 1.00 0.89 0.90 0.86 0.78 0.83 0.95 0.98 0.85 0.77
0.26 0.28 0.30 0.23 0.18 0.21 0.18 0.12 0.18 0.22 0.25 0.30 0.43 0.56 0.60 0.62 0.70 1.02 1.04 0.72 0.58 0.57 0.52 0.53 0.51 0.47 0.44 0.42 0.42 0.45 0.53 0.67 0.78 0.81 0.78 0.68 0.71 0.83 0.87 0.90 0.90 0.82 0.75 0.76
0.24 0.30 0.39 0.32 0.30 0.35 0.19 0.11 0.17 0.21 0.24 0.25 0.29 0.32 0.37 0.49 0.63 0.80 0.88 0.74 0.61 0.59 0.51 0.50 0.49 0.43 0.42 0.43 0.44 0.48 0.50 0.53 0.56 0.55 0.54 0.51 0.58 0.74 0.79 0.75 0.72 0.67 0.65 0.68
0.19 0.29 0.42 0.40 0.48 0.37 0.15 0.11 0.13 0.15 0.17 0.16 0.19 0.18 0.20 0.24 0.25 0.26 0.29 0.33 0.34 0.32 0.29 0.31 0.35 0.32 0.30 0.31 0.35 0.37 0.36 0.39 0.39 0.38 0.39 0.46 0.50 0.52 0.53 0.51 0.53 0.57 0.63 0.64
0.19 0.24 0.40 0.46 0.51 0.37 0.17 0.10 0.09 0.14 0.23 0.15 0.15 0.14 0.12 0.15 0.21 0.18 0.21 0.16 0.12 0.14 0.16 0.22 0.32 0.35 0.30 0.29 0.33 0.34 0.34 0.37 0.36 0.37 0.40 0.44 0.48 0.51 0.50 0.50 0.51 0.54 0.58 0.62
0.27 0.31 0.34 0.39 0.49 0.29 0.14 0.12 0.12 0.23 0.23 0.12 0.09 0.08 0.07 0.09 0.12 0.12 0.16 0.15 0.11 0.14 0.16 0.20 0.26 0.33 0.32 0.30 0.32 0.32 0.33 0.36 0.43 0.45 0.43 0.43 0.46 0.50 0.54 0.56 0.55 0.55 0.56 0.59
0.29 0.37 0.33 0.33 0.42 0.33 0.14 0.14 0.20 0.20 0.12 0.10 0.09 0.08 0.08 0.09 0.09 0.09 0.11 0.14 0.11 0.12 0.14 0.17 0.21 0.30 0.32 0.33 0.35 0.38 0.38 0.38 0.44 0.46 0.45 0.45 0.49 0.50 0.54 0.61 0.61 0.60 0.60 0.58
0.24 0.29 0.34 0.34 0.31 0.21 0.16 0.16 0.17 0.17 0.15 0.12 0.11 0.10 0.08 0.08 0.09 0.09 0.11 0.15 0.10 0.10 0.15 0.18 0.20 0.26 0.32 0.35 0.39 0.42 0.41 0.41 0.43 0.44 0.48 0.51 0.52 0.51 0.51 0.56 0.59 0.61 0.61 0.60
0.18 0.18 0.25 0.25 0.18 0.13 0.15 0.17 0.15 0.14 0.14 0.13 0.14 0.14 0.13 0.12 0.11 0.11 0.11 0.14 0.13 0.11 0.11 0.13 0.16 0.21 0.29 0.35 0.38 0.44 0.46 0.46 0.47 0.49 0.54 0.57 0.59 0.58 0.56 0.58 0.61 0.64 0.64 0.63
0.15 0.18 0.22 0.23 0.15 0.11 0.12 0.15 0.17 0.15 0.14 0.14 0.14 0.15 0.15 0.16 0.15 0.14 0.13 0.13 0.13 0.15 0.14 0.13 0.15 0.17 0.23 0.30 0.34 0.41 0.46 0.51 0.51 0.51 0.57 0.62 0.63 0.63 0.63 0.64 0.65 0.63 0.62 0.66
0.08 0.13 0.19 0.20 0.14 0.14 0.12 0.13 0.16 0.18 0.17 0.15 0.13 0.13 0.14 0.15 0.15 0.14 0.14 0.14 0.15 0.15 0.16 0.16 0.16 0.16 0.18 0.23 0.27 0.32 0.36 0.45 0.52 0.56 0.56 0.56 0.62 0.65 0.62 0.62 0.62 0.64 0.64 0.68